Date,TemperatureHighF,TemperatureAvgF,TemperatureLowF,DewpointHighF,DewpointAvgF,DewpointLowF,HumidityHigh,HumidityAvg,HumidityLow,PressureMaxIn,PressureMinIn,WindSpeedMaxMPH,WindSpeedAvgMPH,GustSpeedMaxMPH,PrecipitationSumIn
2013-1-1,32.7,19.1,-2.0,27.1,13.0,-6.9,88,77,63,30.03,29.83,13,2,13,0.00
2013-1-2,25.8,18.2,-2.0,20.0,13.5,-5.2,92,82,69,30.20,29.98,10,1,10,0.00
2013-1-3,27.5,20.1,10.0,24.3,16.3,7.1,91,85,73,30.19,29.96,9,1,10,0.00
2013-1-4,35.2,30.0,25.8,25.2,22.7,19.2,84,74,58,30.01,29.86,19,4,19,0.01
2013-1-5,35.7,30.7,25.5,26.9,24.1,20.3,82,76,66,30.28,30.01,15,2,15,0.06
2013-1-6,36.7,33.3,29.3,31.5,28.4,23.4,95,82,73,30.07,29.88,12,1,12,0.17
2013-1-7,33.7,27.5,17.5,31.4,22.6,13.4,91,81,68,30.39,30.07,12,1,13,0.02
2013-1-8,40.6,29.8,20.0,25.1,21.0,15.6,86,70,52,30.31,30.15,10,0,10,0.05
2013-1-9,46.9,33.4,17.2,35.3,26.3,13.6,94,76,60,30.32,29.95,18,2,19,0.14
2013-1-10,42.8,35.3,29.3,28.7,27.0,23.2,85,72,55,30.59,30.32,12,1,10,0.00
2013-1-11,43.3,38.9,31.4,39.6,32.5,25.2,88,77,56,30.42,29.89,16,2,16,0.18
2013-1-12,56.0,48.0,38.2,48.6,43.9,36.0,96,86,75,30.01,29.95,7,0,7,0.00
2013-1-13,66.5,54.4,43.5,55.8,49.4,40.5,96,83,65,29.98,29.73,12,1,13,0.00
2013-1-14,51.8,35.2,27.5,48.5,28.7,20.1,94,77,62,30.37,29.73,24,3,24,0.00
2013-1-15,33.2,27.2,20.8,22.1,20.0,16.4,86,74,55,30.38,30.17,7,0,7,0.00
2013-1-16,36.9,31.1,27.3,29.0,24.8,20.7,84,77,60,30.17,29.77,12,1,12,0.00
2013-1-17,34.5,24.3,15.8,29.0,18.7,12.6,91,79,65,30.17,29.82,16,2,16,0.00
2013-1-18,30.9,19.2,8.5,17.1,11.5,6.5,94,73,55,30.41,30.02,13,1,15,0.03
2013-1-19,46.2,40.5,30.9,30.2,24.4,16.0,62,52,42,30.02,29.59,18,2,18,0.01
2013-1-20,46.5,30.5,17.2,35.7,18.3,6.8,80,60,45,30.06,29.44,24,5,24,0.01
2013-1-21,21.1,17.4,11.4,14.9,9.1,0.9,88,70,61,30.05,29.84,13,1,15,0.00
2013-1-22,13.2,9.0,5.4,1.2,-2.3,-5.3,71,60,48,30.15,29.88,13,3,15,0.00
2013-1-23,13.8,7.2,2.1,7.5,0.7,-5.0,90,75,59,30.20,30.07,10,1,12,0.00
2013-1-24,13.8,8.9,3.7,9.9,4.0,0.3,89,80,64,30.49,30.06,16,2,13,0.00
2013-1-25,16.4,10.5,5.1,11.1,5.8,0.3,91,81,66,30.48,30.06,9,2,10,0.00
2013-1-26,23.5,11.1,-2.2,13.5,5.7,-5.0,91,79,58,30.37,30.07,7,1,7,0.00
2013-1-27,26.8,19.4,7.3,18.0,13.8,4.6,92,79,63,30.54,30.34,10,1,10,0.02
2013-1-28,41.4,32.6,22.0,40.9,29.9,16.1,99,89,77,30.35,29.84,12,2,12,0.36
2013-1-29,53.4,41.4,32.2,52.1,32.3,-99.9,99,92,94,30.05,29.75,15,1,15,0.53
2013-1-30,62.9,57.4,50.2,54.3,49.9,46.8,95,76,68,29.75,29.03,21,3,24,0.04
2013-1-31,54.3,30.0,20.1,50.3,22.5,11.6,94,73,56,29.69,29.02,22,4,24,0.13